Temp_Advection
nan nan nan nan nan nan nan nan nan nan nan nan nan nan nan nan nan nan nan nan nan nan nan nan nan nan nan nan nan nan nan nan nan nan nan nan nan nan nan nan nan nan nan
nan -0 0 -0 -0 -0 0 0 0 0 0 0 0 0 0 0 -0 0 0 -0 0 0 0 0 -0 -0 -0 -0 -0 -0 -1 -1 -1 -0 -1 -1 -1 -1 -1 -0 -0 -0 nan
nan -0 -0 0 0 0 -0 -0 -0 -0 -0 0 0 0 0 0 0 0 0 0 -0 -0 -0 0 0 0 -0 0 -0 -0 -0 -0 -0 -0 -0 -1 -1 -2 -3 -1 -1 -1 nan
nan -0 -0 0 -0 -0 -0 -0 -0 -1 -0 -0 -0 -0 -0 -0 -0 -0 -0 -0 0 0 0 0 0 -0 -0 -1 -0 -0 -0 -0 -0 -0 -0 0 0 -0 -2 -2 -1 -1 nan
nan -0 -0 -0 -0 -0 -0 -0 -0 -0 -0 -0 -0 -0 -0 -0 -0 -0 -0 -0 -0 -0 -0 -0 -0 -0 -0 -1 -1 -0 -0 -0 -0 -0 -0 -0 -0 -0 -0 -2 -2 -3 nan
nan -0 -0 -0 -0 -0 -0 -0 -0 -0 -0 -0 -0 -0 -0 -0 -0 -0 -0 -0 -0 -0 -0 -0 -1 -1 -0 -0 -0 -0 -0 -0 -0 -0 -0 -0 0 -0 -0 -1 -2 -2 nan
nan -0 -0 -0 -0 -0 -0 -0 -0 -0 -0 -0 0 0 0 0 -0 -0 -0 -0 -0 0 -0 -0 -0 -0 -0 -0 -0 -0 -0 -0 -0 -0 -0 -0 0 0 -0 -0 -1 -1 nan
nan -0 -0 -0 0 0 0 0 0 0 0 0 0 0 0 0 0 -0 0 -0 -0 -0 0 0 -0 -0 -0 -0 -0 -0 -0 -1 -0 0 -0 0 0 0 0 0 -0 -1 nan
nan 0 0 0 0 0 0 0 0 0 0 0 0 0 0 0 0 0 0 0 0 -0 -0 -0 0 -0 -0 -0 -0 -0 -0 -0 -0 -0 -0 -0 -0 -0 -0 0 0 -0 nan
nan -0 0 -0 -0 0 0 0 0 0 0 0 0 0 0 -0 0 0 -0 0 0 -0 0 -0 -0 -0 -0 -0 0 -0 -0 -0 -0 -0 -0 -0 -0 -0 -0 -0 0 0 nan
nan -0 -0 -0 -0 -0 -0 0 0 0 0 0 -0 -0 0 -0 -0 -0 0 0 0 0 -0 -0 -0 -0 -0 -0 0 0 -0 -0 -0 0 0 -0 -0 -0 -0 -0 -0 -0 nan
nan -0 -0 -0 -0 -0 -0 -0 -0 0 0 -0 -0 -0 -0 0 -0 0 0 0 0 -0 0 0 -0 -0 -0 -0 -0 -0 0 -0 -0 0 0 0 -0 -1 -0 -0 -0 -0 nan
nan -1 -1 -1 -0 -0 -1 -0 0 -0 -0 -0 -0 0 0 0 0 0 0 -0 0 -0 -0 -0 -0 -0 -0 -0 -0 -0 -0 -0 -0 -0 -0 -0 -0 -1 -0 -0 -0 -0 nan
nan -1 -1 -1 -0 -0 -0 -0 -0 0 0 0 0 0 0 0 1 0 0 -0 0 0 0 0 -0 -0 -0 -0 -0 -0 -0 -0 -0 -0 -0 -1 -1 -0 -0 -1 -1 -0 nan
nan -1 -1 -1 -1 -0 -0 -0 -0 0 0 0 0 0 0 0 1 1 0 0 0 0 0 0 0 -0 -0 -0 -0 -0 -0 -0 -0 -0 -0 -0 -0 -0 -0 -0 -1 -0 nan
nan -1 -0 -0 -0 0 0 -0 -0 0 0 0 -0 -0 -0 1 0 1 0 0 0 0 0 -0 0 0 -0 -0 -0 -0 -0 -0 -0 -1 -1 -0 -0 -0 -0 -0 -0 -0 nan
nan 0 -0 -0 0 0 -0 0 -0 0 0 1 0 0 -0 0 0 0 -0 -0 0 0 0 0 0 0 0 0 -0 -0 -0 -0 -0 -0 -1 -1 -0 -0 -1 -1 -0 -0 nan
nan 0 0 -0 -0 -0 -0 -0 -0 -0 -0 -0 0 0 1 1 1 -0 -0 0 0 0 -0 0 0 0 0 0 0 -0 -0 -0 -0 -0 -0 -0 -0 -0 -0 -0 -1 -1 nan
nan -0 -0 -0 -0 -1 -0 -1 -0 -0 -0 -1 -1 -1 0 1 0 0 0 0 -0 -0 0 0 0 0 0 -0 -0 -0 -0 -0 -0 -0 -0 -0 -0 -0 -0 -0 -0 -0 nan
nan -0 -0 -0 -0 -0 -0 -0 -0 -1 -0 -0 -0 -0 -1 1 1 -0 0 0 0 0 0 0 0 0 0 -0 -0 -0 -0 -0 -0 -0 -0 -0 -0 -0 -0 -0 -0 -1 nan
nan -0 -0 -0 -0 -0 -0 -0 -0 -0 -0 -0 -0 -0 -1 -0 1 0 -0 -0 -0 0 -0 0 0 0 -0 0 -0 -0 -0 -0 -0 -1 -0 -0 -0 -0 -0 -0 0 0 nan
nan -1 -1 -0 -0 -1 -0 -0 -0 -0 -0 -0 -0 -1 -0 -0 -0 0 0 -0 -0 0 -0 -0 -0 -0 -0 -0 0 0 0 -0 -0 -1 -0 -0 -0 -0 -0 -0 -0 -0 nan
nan -0 -0 -1 -1 -1 -0 -0 -0 -0 -0 -0 -0 -0 -0 -0 -0 -0 -0 0 -0 -0 -0 -0 -0 -0 -0 -0 -0 -0 -0 -0 -0 -0 -0 -0 -0 -0 -0 -0 -0 -0 nan
nan -0 -1 -0 -1 -0 -1 -1 -0 -0 -0 -0 -0 -0 -0 -0 -0 -0 -0 -0 -0 -0 -0 -0 -0 -0 0 -0 -0 -1 -0 -0 -0 -0 -0 -0 -0 -0 -0 -0 -0 -0 nan
nan -0 -0 -1 -1 -1 -1 -1 -1 -0 -0 -0 -0 -0 -0 -0 -0 -0 -0 -0 -0 -0 -0 -0 -0 -0 0 0 -0 -0 -0 -0 -0 -0 -0 -0 -0 -0 -0 -0 -0 -0 nan
nan nan nan nan nan nan nan nan nan nan nan nan nan nan nan nan nan nan nan nan nan nan nan nan nan nan nan nan nan nan nan nan nan nan nan nan nan nan nan nan nan nan nan
Wind_Speed
19 19 19 17 13 8 4 6 6 5 8 3 4 5 8 5 4 9 13 15 13 15 19 22 22 23 23 24 25 27 29 28 26 30 32 31 30 31 31 28 30 31 35
16 14 9 7 4 2 2 3 6 7 3 3 4 8 11 7 3 5 5 8 12 13 15 16 16 18 20 22 24 27 29 32 27 26 30 28 33 30 26 24 24 27 24
18 16 15 14 11 9 7 4 3 4 3 3 5 7 6 7 10 11 14 15 15 15 17 18 19 19 22 24 26 29 32 31 28 25 22 19 21 29 31 32 31 30 30
17 13 11 10 9 9 6 7 8 12 13 13 14 12 13 14 15 17 20 21 23 23 22 19 20 23 26 30 30 26 22 24 25 23 21 23 27 19 28 25 28 31 31
13 9 6 8 9 9 8 6 6 10 13 15 17 17 14 14 14 14 16 18 19 21 23 26 32 31 29 25 22 21 22 24 28 29 30 32 32 31 30 35 32 39 37
14 8 6 7 8 8 9 9 5 6 8 8 8 9 12 13 14 16 18 21 24 25 28 32 30 26 24 25 25 28 25 26 23 25 24 28 27 23 16 22 31 34 35
12 13 10 9 7 5 5 3 4 8 12 15 16 15 15 14 15 18 21 24 26 30 33 34 31 28 28 28 22 22 25 23 25 26 28 21 17 14 14 14 19 24 32
7 8 8 6 5 4 6 11 13 14 11 12 13 15 17 17 16 19 20 24 29 32 32 26 27 29 23 20 21 22 21 24 22 21 15 16 14 16 16 16 18 23 23
8 5 5 4 7 7 5 5 5 8 11 15 17 19 18 20 22 23 24 24 22 22 25 29 30 27 22 17 15 14 15 15 16 15 13 14 14 16 19 18 18 18 24
3 3 2 3 1 3 6 10 13 14 14 15 20 22 24 26 24 23 22 24 25 27 29 26 21 22 22 19 17 16 17 19 18 18 17 17 18 18 20 21 22 24 24
6 2 2 4 6 7 10 10 12 16 18 18 21 26 25 19 21 24 26 27 31 25 22 21 21 23 21 19 18 18 19 19 19 18 15 19 17 19 20 20 20 21 21
7 6 7 9 8 8 11 14 18 23 17 22 27 23 22 22 25 26 25 30 24 21 20 21 17 17 17 18 18 17 19 19 20 19 21 21 25 31 29 25 25 26 26
15 13 10 10 11 15 20 23 20 17 21 24 21 22 22 23 27 29 24 28 21 18 16 16 16 18 21 22 22 22 23 23 21 23 26 31 32 32 29 28 28 29 28
15 15 18 19 22 26 18 15 17 19 22 26 23 24 23 26 30 24 23 27 21 19 18 20 20 20 22 22 22 21 21 25 27 30 31 32 32 28 24 25 26 27 29
17 19 17 20 22 18 13 16 17 24 28 27 27 25 25 30 28 26 21 21 17 15 18 20 21 23 23 22 22 26 30 32 34 35 34 33 27 20 19 23 23 23 24
15 19 20 21 17 17 17 19 25 29 25 24 28 29 30 30 31 25 18 16 17 18 16 18 20 23 24 26 28 31 35 36 36 35 34 31 28 23 22 23 23 21 22
20 19 18 15 18 20 22 25 25 30 31 29 28 33 25 24 22 16 17 18 14 16 14 19 21 22 24 26 31 35 32 28 28 29 27 27 24 23 24 26 27 26 24
17 17 18 20 22 22 20 19 21 23 25 28 29 24 26 24 24 19 14 12 15 15 18 17 20 21 25 29 32 27 26 29 28 28 26 27 26 23 24 25 25 25 25
14 18 21 21 18 21 25 28 30 32 34 28 32 33 31 30 18 14 11 14 13 15 15 16 21 26 28 31 26 26 27 27 29 27 26 31 26 23 21 24 22 20 21
18 18 19 20 25 24 26 31 33 32 24 29 26 30 32 27 16 19 17 8 13 14 15 19 22 26 30 24 23 26 28 30 26 28 34 28 24 20 21 21 24 29 29
19 20 22 25 23 27 31 33 26 23 27 31 31 37 33 28 21 7 10 9 11 14 18 21 25 28 23 23 25 27 27 26 30 34 30 26 22 22 20 19 21 21 17
20 23 23 23 26 31 28 24 27 24 28 32 35 36 29 12 10 14 9 11 15 17 20 23 26 23 24 23 23 25 27 27 25 25 24 21 17 18 16 16 15 15 15
24 21 23 29 29 28 24 30 24 26 32 35 32 29 17 21 13 10 10 11 16 20 21 24 25 25 24 24 26 28 24 25 22 20 18 14 13 20 14 10 10 10 9
20 26 29 27 28 29 31 28 29 31 36 31 31 23 22 13 8 9 13 16 19 17 19 22 22 23 23 25 28 28 27 24 19 19 14 15 18 15 11 11 9 10 11
25 27 27 30 34 36 34 27 26 26 29 27 30 21 15 11 8 12 17 14 14 17 19 19 20 21 21 24 25 24 25 22 19 16 14 17 17 16 15 15 12 11 11
26 28 30 33 33 34 32 29 26 29 25 28 25 10 8 9 13 15 13 11 14 16 16 17 19 19 20 22 25 22 20 17 15 16 16 16 16 16 16 16 14 14 14
Wind_Direction
94 97 104 112 113 136 157 167 191 233 247 128 180 191 196 199 235 301 308 299 295 297 294 290 296 304 301 303 303 298 299 301 301 301 298 295 292 292 294 292 289 284 278
79 76 77 73 75 95 159 245 264 279 292 236 234 260 260 273 324 284 271 299 289 283 289 301 302 301 302 302 303 306 308 306 306 303 299 306 300 300 291 286 283 285 300
89 84 89 95 104 99 77 53 0 350 25 269 262 273 270 250 242 252 286 308 306 301 299 295 289 292 296 300 303 302 300 302 298 295 299 310 305 307 294 285 287 284 289
94 88 87 90 90 92 79 66 21 358 347 335 331 322 309 303 297 299 299 293 291 294 295 290 295 302 302 303 306 306 297 296 301 307 304 300 314 321 312 297 287 284 280
115 108 72 60 53 45 39 63 52 25 7 350 340 337 328 318 316 307 296 293 290 290 294 299 305 309 315 314 310 304 306 306 304 309 306 303 294 302 302 307 302 295 289
118 115 106 86 57 36 11 5 344 334 342 355 352 336 320 313 305 306 301 303 307 307 308 315 319 321 315 308 305 306 305 304 305 303 307 306 311 307 302 303 305 308 309
134 133 135 120 104 87 83 29 348 323 317 309 306 307 310 313 317 316 311 308 310 309 314 319 322 318 311 305 307 305 303 305 310 310 306 307 305 314 303 307 307 309 313
156 163 152 175 208 259 284 302 305 304 302 306 311 311 311 319 319 313 307 308 307 308 312 312 313 312 316 309 306 307 314 311 306 306 313 301 305 300 287 297 299 304 307
169 185 189 247 277 292 297 276 276 282 284 289 294 300 306 308 310 304 304 307 306 306 305 311 318 322 328 325 328 328 329 330 330 327 322 323 320 323 321 309 315 308 298
174 157 193 122 137 267 281 302 307 296 286 286 295 301 306 310 306 305 303 304 308 308 311 315 316 315 318 317 314 322 322 319 319 318 312 313 317 311 312 307 302 293 293
14 355 20 333 329 321 318 306 302 301 291 292 303 308 314 316 303 301 303 308 312 314 312 311 304 308 313 316 314 310 312 310 306 300 292 293 299 303 302 300 296 290 295
341 32 16 2 344 334 326 315 310 299 305 317 320 323 317 306 304 300 296 319 313 314 302 304 316 319 320 322 321 316 306 302 298 290 290 290 303 308 293 292 296 291 286
55 50 49 33 360 343 334 317 312 318 321 319 321 318 312 308 307 301 312 331 321 327 325 323 324 322 317 315 310 309 303 297 299 301 301 304 309 305 295 289 290 290 290
21 1 346 331 321 322 317 311 320 317 311 314 309 315 305 295 299 299 323 330 319 316 316 317 321 314 313 311 310 308 306 306 307 307 308 309 310 305 291 294 291 288 286
360 350 339 329 330 331 329 329 310 312 315 310 308 309 300 294 286 293 304 317 310 305 305 306 312 311 307 308 305 304 306 309 310 310 310 311 307 292 291 296 290 286 281
342 341 340 340 348 346 329 317 315 315 311 300 302 306 305 285 295 292 306 302 295 296 301 309 308 309 310 309 309 311 311 309 310 315 316 311 304 297 286 290 296 293 292
348 342 346 352 341 333 325 308 311 317 309 314 315 309 313 298 292 279 301 296 296 297 310 315 312 312 309 311 316 317 316 318 320 323 325 325 317 308 302 294 289 289 289
352 358 354 339 327 326 331 333 329 334 336 326 324 313 312 295 278 292 288 293 285 306 319 311 310 308 311 313 318 321 319 317 320 321 319 322 318 313 311 305 298 293 287
352 337 334 344 352 339 333 333 330 328 332 331 331 329 330 319 301 271 274 286 307 322 309 313 311 313 318 322 323 322 319 320 318 315 314 319 312 312 308 308 305 303 301
346 355 344 336 337 339 333 332 330 330 330 332 333 331 328 327 305 322 308 303 324 303 309 313 312 318 325 326 328 322 319 319 317 317 321 320 315 309 309 307 311 305 303
336 331 332 335 331 325 329 330 329 330 320 316 320 323 326 312 310 313 307 318 299 305 312 313 318 323 326 328 323 319 319 320 319 318 319 321 318 313 314 309 303 305 311
340 338 336 326 326 330 331 322 326 323 316 320 326 330 324 319 305 273 281 297 301 313 317 318 321 328 339 335 329 324 317 317 319 322 327 333 341 334 322 319 321 315 303
337 333 326 331 334 331 328 325 319 313 318 321 329 333 333 329 305 307 299 295 312 315 319 324 328 333 337 337 338 337 339 336 335 338 342 345 339 330 333 338 341 356 -0
326 325 329 331 327 320 322 323 317 313 317 322 326 323 326 321 299 290 297 308 315 317 324 326 329 335 337 338 340 348 343 344 347 351 352 344 338 348 355 352 347 360 4
325 326 324 319 316 316 318 322 315 309 311 316 324 325 325 299 302 309 316 317 318 321 326 330 333 334 338 340 345 345 343 345 343 339 343 343 352 3 5 3 14 17 13
325 325 319 318 318 315 310 313 307 315 308 321 326 326 317 313 314 318 318 312 315 323 337 338 336 337 337 338 350 335 342 344 340 339 349 350 357 3 3 6 15 22 17
Height
1543 1544 1544 1544 1546 1549 1551 1554 1553 1553 1554 1555 1556 1556 1557 1558 1558 1556 1555 1553 1550 1548 1547 1545 1542 1540 1538 1536 1534 1531 1528 1527 1525 1519 1515 1512 1512 1511 1510 1510 1510 1509 1508
1543 1544 1545 1546 1548 1551 1553 1552 1553 1554 1554 1555 1554 1554 1555 1555 1555 1553 1550 1549 1547 1545 1542 1539 1537 1535 1533 1532 1530 1528 1524 1522 1521 1517 1511 1504 1503 1504 1503 1503 1503 1502 1501
1547 1549 1550 1551 1551 1552 1553 1552 1553 1555 1556 1555 1554 1554 1554 1553 1551 1550 1547 1545 1543 1540 1537 1534 1533 1531 1529 1527 1525 1523 1519 1515 1514 1515 1512 1505 1501 1496 1497 1496 1497 1496 1493
1549 1551 1553 1554 1554 1555 1555 1556 1557 1556 1555 1554 1554 1554 1552 1551 1549 1547 1545 1542 1539 1536 1533 1531 1529 1527 1524 1522 1519 1516 1514 1512 1510 1510 1510 1508 1504 1498 1487 1489 1489 1489 1486
1550 1553 1555 1555 1556 1557 1558 1559 1558 1557 1556 1554 1552 1551 1549 1547 1545 1543 1541 1538 1535 1533 1530 1528 1526 1524 1520 1517 1514 1511 1509 1508 1506 1504 1501 1500 1499 1497 1491 1479 1479 1479 1480
1552 1554 1555 1556 1557 1557 1558 1558 1558 1557 1555 1553 1552 1550 1548 1545 1543 1540 1536 1533 1531 1528 1525 1523 1520 1517 1515 1512 1509 1506 1504 1502 1500 1498 1497 1494 1491 1488 1488 1483 1476 1473 1470
1554 1555 1556 1557 1557 1557 1557 1556 1555 1554 1553 1551 1549 1548 1545 1542 1539 1537 1533 1530 1527 1522 1520 1518 1515 1512 1510 1507 1505 1502 1500 1498 1495 1491 1490 1489 1487 1484 1483 1481 1477 1472 1467
1553 1554 1555 1554 1553 1553 1553 1554 1553 1552 1550 1547 1545 1543 1541 1538 1536 1532 1529 1525 1522 1518 1516 1513 1511 1508 1504 1501 1499 1498 1494 1493 1491 1487 1485 1484 1483 1482 1480 1478 1475 1470 1467
1551 1552 1552 1551 1550 1550 1549 1549 1548 1547 1545 1543 1541 1538 1536 1534 1531 1528 1524 1521 1518 1515 1512 1508 1504 1503 1500 1497 1495 1493 1492 1489 1487 1485 1483 1481 1480 1478 1476 1474 1473 1471 1467
1551 1551 1551 1550 1549 1549 1548 1547 1545 1543 1542 1539 1536 1533 1532 1529 1526 1523 1520 1518 1515 1511 1507 1505 1502 1501 1499 1496 1493 1490 1488 1486 1484 1481 1479 1478 1476 1474 1473 1471 1469 1467 1465
1550 1549 1549 1549 1548 1548 1546 1543 1542 1540 1538 1535 1533 1530 1527 1525 1522 1519 1517 1515 1512 1508 1505 1503 1499 1498 1496 1493 1490 1487 1485 1483 1480 1478 1475 1473 1471 1469 1468 1467 1466 1463 1461
1549 1548 1549 1548 1548 1547 1545 1543 1539 1536 1534 1531 1528 1527 1525 1522 1520 1516 1513 1511 1508 1505 1501 1499 1497 1495 1492 1489 1487 1484 1481 1479 1476 1473 1471 1468 1466 1464 1462 1461 1459 1457 1454
1547 1548 1547 1548 1547 1546 1543 1540 1536 1532 1530 1527 1524 1522 1520 1517 1515 1512 1509 1505 1504 1502 1499 1496 1494 1491 1489 1486 1483 1480 1477 1474 1471 1468 1465 1462 1460 1457 1455 1454 1451 1449 1447
1549 1549 1548 1546 1544 1542 1539 1537 1533 1529 1526 1523 1520 1517 1513 1510 1507 1503 1502 1501 1498 1497 1496 1494 1491 1487 1484 1481 1478 1475 1472 1469 1465 1462 1458 1455 1453 1450 1448 1446 1443 1441 1439
1548 1547 1545 1542 1539 1537 1534 1532 1529 1526 1523 1519 1516 1512 1508 1503 1500 1498 1495 1494 1492 1491 1490 1489 1486 1483 1479 1476 1474 1471 1466 1462 1457 1454 1451 1448 1445 1443 1442 1438 1435 1433 1431
1547 1543 1541 1538 1536 1534 1532 1529 1526 1523 1519 1514 1512 1510 1506 1498 1497 1494 1491 1489 1487 1486 1482 1482 1481 1478 1475 1472 1469 1465 1460 1456 1451 1446 1443 1439 1437 1435 1433 1431 1429 1428 1425
1542 1541 1539 1537 1534 1532 1529 1524 1521 1518 1513 1511 1509 1504 1499 1496 1490 1488 1487 1485 1483 1482 1478 1477 1475 1474 1471 1468 1463 1458 1453 1449 1445 1442 1437 1433 1430 1427 1425 1423 1421 1419 1418
1540 1539 1537 1535 1532 1528 1526 1521 1517 1514 1510 1506 1502 1498 1494 1490 1486 1480 1480 1480 1479 1477 1476 1472 1471 1470 1467 1463 1458 1452 1448 1444 1441 1437 1433 1429 1425 1422 1419 1416 1413 1411 1411
1540 1537 1534 1532 1529 1525 1520 1516 1513 1509 1505 1501 1497 1493 1489 1484 1480 1478 1474 1474 1473 1473 1471 1468 1467 1464 1461 1456 1452 1447 1443 1439 1435 1431 1428 1424 1419 1416 1413 1410 1407 1404 1403
1536 1534 1531 1528 1524 1521 1517 1512 1508 1504 1501 1496 1493 1488 1483 1480 1476 1475 1473 1472 1469 1468 1466 1464 1463 1459 1455 1451 1448 1443 1438 1433 1429 1425 1421 1417 1414 1410 1408 1404 1402 1398 1396
1534 1530 1526 1523 1520 1516 1512 1509 1504 1500 1497 1493 1489 1484 1480 1475 1471 1471 1471 1468 1465 1463 1462 1461 1458 1455 1451 1448 1444 1439 1434 1429 1424 1419 1415 1411 1408 1405 1402 1399 1396 1393 1390
1530 1527 1523 1519 1516 1512 1509 1505 1501 1495 1491 1487 1483 1478 1474 1470 1469 1468 1466 1465 1462 1460 1458 1457 1454 1451 1448 1444 1440 1436 1431 1426 1421 1416 1411 1407 1404 1401 1397 1395 1392 1389 1386
1526 1523 1520 1516 1512 1509 1505 1500 1496 1490 1485 1482 1478 1474 1471 1469 1467 1464 1463 1461 1459 1457 1455 1453 1450 1447 1445 1441 1436 1431 1426 1421 1417 1413 1409 1406 1402 1398 1394 1392 1389 1386 1383
1523 1520 1515 1512 1508 1504 1500 1496 1491 1485 1481 1477 1474 1470 1467 1465 1464 1462 1461 1459 1456 1454 1452 1450 1447 1444 1441 1437 1432 1426 1422 1418 1414 1411 1407 1404 1400 1396 1393 1390 1387 1385 1382
1519 1516 1512 1507 1503 1499 1494 1490 1485 1480 1476 1472 1468 1465 1463 1461 1460 1459 1457 1455 1453 1452 1449 1447 1444 1441 1438 1434 1430 1426 1421 1417 1413 1409 1406 1402 1399 1395 1392 1389 1386 1384 1382
1514 1510 1507 1503 1497 1493 1488 1484 1479 1475 1471 1467 1463 1461 1460 1459 1458 1457 1455 1453 1451 1449 1447 1445 1442 1439 1436 1433 1428 1425 1420 1416 1412 1408 1405 1401 1398 1396 1393 1389 1387 1384 1382